map of ESU home
ESU - Airport
Location
City:  Essaouira, Safi, Morocco
Near (Alt.):Mogador
Name:Mogador Airport
ICAO:GMMI
IATA:ESU

Details
Type:Airport (Aerodrome, Airfield)
Use:International (customs port of entry)
Latitude:3123'51"N (31.397500)
Longitude:940'54"W (-9.681666)
Datum:WGS 1984
Elevation:384 ft (117 m)
Variation:2.64W (WMM2015 magnetic declination)
0.11 annual change
Runways:1
Longest:6890 × 148 ft (2100 × 45 m), paved

Time
Time Zone:UTC+0 (DST+1)
Local Time:

Weather
METAR:GMMI 031900Z AUTO 21009KT 9999NDV ////// 17/15 Q1009 NOSIG
TAF:GMMI 031700Z 0318/0424 22008KT 5000 SCT016 SCT023
TEMPO 0318/0321 5000 -TSRA SCT010CB
TEMPO 0400/0410 4000 RA BKN004TCU BKN050
TEMPO 0409/0421 4000 -RA BKN006TCU BKN020

Related Locations
Nearby:
Farthest:NLK: 12220 mi / 19667 km
Norfolk Island, NF

Find:

   beyond  
but within

Other Information
Maps:
NOTAMs:
Links:
Sources:

  
flag of Morocco   

Sectional Chart

Flight Planning
at skyvector.com

Satellite Image

Google Maps Satellite view

 

Copyright © 2004-2016 Karl L. Swartz. All rights reserved.
The Great Circle Mapper name and logo are trademarks of the Great Circle Mapper.
All other trademarks mentioned herein belong to their respective owners.
Please see credits for attibutions and further copyright information.

  Follow gcmap on Facebook Follow gcmap on Twitter Follow gcmap on Google+ GCmap on LinkedIn

hCard Microformat

Geo Microformat